Miscellaneous Local Product
Issued by NWS North Platte, NE

Home | Current Version | Previous Version | Graphics & Text | Print | Product List | Glossary On
Versions: 1 2 3 4 5 6 7 8 9 10 11 12 13 14 15 16 17 18 19 20 21 22 23 24 25 26 27 28 29 30 31 32 33 34 35 36 37 38 39 40 41 42 43 44 45 46 47 48 49 50
000
AXUS43 KLBF 280510
MISLBF


WESTERN AND NORTH CENTRAL NEBRASKA HOURLY WEATHER ROUNDUP
NATIONAL WEATHER SERVICE NORTH PLATTE NE
1200 AM CDT SAT MAR 28 2015

***STATIONS NOT REPORTING VARIABLES SUCH AS SKY/WEATHER OR
PRESSURE ARE PROVIDED BY THE NEBRASKA DEPARTMENT OF
ROADS...RAWS...AND APRS NETWORKS...AND ARE NOT UNDER
NATIONAL WEATHER SERVICE QUALITY CONTROL***

...OBSERVATIONS IN AND NEAR THE EASTERN PANHANDLE OF NEBRASKA...

CITY           SKY/WX    TMP DP  RH WIND       PRES   REMARKS
PINE RIDGE     CLEAR     37  30  75 CALM      29.96F
CHADRON        CLOUDY    42  33  70 W6        29.98S
ALLIANCE       CLOUDY    43  32  65 NW6       30.00F
SIDNEY         CLEAR     37  30  75 W6        30.04S WCI  32
WHITECLAY        N/A     36  30  78 E7          N/A  WCI  30
BIG SPRINGS      N/A     44  30  58 SW3         N/A
$$

...OBSERVATIONS IN NORTH CENTRAL NEBRASKA...

CITY           SKY/WX    TMP DP  RH WIND       PRES   REMARKS
VALENTINE      CLEAR     39  31  72 N3        29.95R
THEDFORD       CLEAR     39  33  78 W3        29.97S
AINSWORTH      CLOUDY    43  34  68 SW3       29.95R
O`NEILL        CLOUDY    37  30  76 SE5       29.99R WCI  33
ORD            PTCLDY    34  24  67 SE5       29.98S WCI  30
BROKEN BOW     CLEAR     34  29  82 CALM      29.96S
BROWNLEE         N/A     48  34  57 CALM        N/A
SPRINGVIEW       N/A     34  29  83 CALM        N/A
BREWSTER         N/A     35  33  90 CALM        N/A
ROSE             N/A     37  34  87 E5          N/A  WCI  34
NEWPORT          N/A     38  31  77 CALM        N/A
SARGENT          N/A     35  29  78 CALM        N/A
COMSTOCK         N/A     37  28  70 CALM        N/A
EWING            N/A     33  29  86 SE3         N/A
$$

...OBSERVATIONS IN SOUTHWEST NEBRASKA AND FAR NORTHEAST COLORADO...

CITY           SKY/WX    TMP DP  RH WIND       PRES   REMARKS
WRAY           FAIR      47  32  56 SW9       30.03R
HOLYOKE        FAIR      46  32  57 W8        30.01F
IMPERIAL       PTCLDY    47  32  56 W3        30.00R
OGALLALA       MOCLDY    41  33  73 CALM      30.00S
NORTH PLATTE   PTCLDY    40  33  76 CALM      29.98S
MCCOOK         MOCLDY    45  34  65 NE3       29.98R
LEXINGTON      PTCLDY    37  30  78 CALM      29.98S
PAXTON           N/A     45  34  66 CALM        N/A
SUTHERLAND       N/A     44  36  74 S14         N/A
BRADY            N/A     41  33  74 CALM        N/A
GOTHENBURG       N/A     44  31  61 N3          N/A
CALLAWAY         N/A     40  33  77 S3          N/A
$$

...NORTH PLATTE AREA...

CITY           SKY/WX    TMP DP  RH WIND       PRES   REMARKS
AIRPORT        PTCLDY    40  33  76 CALM      29.98S
$$

...SOME WEATHER OBSERVATIONS FROM AROUND THE REGION...

CITY           SKY/WX    TMP DP  RH WIND       PRES   REMARKS
DENVER         PTCLDY    55  31  39 W8        30.13F
LARAMIE        CLEAR     42  24  49 W8        30.19F
CHEYENNE       PTCLDY    47  24  40 W14       30.13S
SCOTTSBLUFF    PTCLDY    45  32  60 NW5       30.03R
RAPID CITY     CLEAR     43  32  65 NW10      29.95S
PIERRE         CLEAR     32  29  88 SE6       29.96R WCI  26
WINNER         CLOUDY    35  29  78 SE9       29.96R WCI  28
SIOUX FALLS    CLOUDY    31  24  75 E13       30.08S WCI  21
OMAHA          CLOUDY    37  20  50 SE9       30.09F WCI  30
GRAND ISLAND   PTCLDY    33  23  66 S12       30.01F WCI  24
KANSAS CITY    CLOUDY    39  22  50 SE10      30.12F WCI  32
WICHITA        CLOUDY    45  29  53 S10       30.07S
HAYS           PTCLDY    48  32  53 SW9       29.98R
LIBERAL        MOCLDY    52  32  46 SW10      30.06S
GOODLAND       CLEAR     48  35  60 W9        30.02F
$$



USA.gov is the U.S. government's official web portal to all federal, state and local government web resources and services.